Time,TemperatureF,DewpointF,PressureIn,WindDirection,WindDirectionDegrees,WindSpeedMPH,WindSpeedGustMPH,Humidity,HourlyPrecipIn,Conditions,Clouds,dailyrainin,SoftwareType,DateUTC
2013-01-29 00:00:00,50.0,43.1,29.39,SW,225,4.9,4.9,77,0.00,,,0.00,WUHU216HW,2013-01-29 05:00:00,
2013-01-29 00:01:00,50.0,43.1,29.39,SW,225,4.9,4.9,77,0.00,,,0.00,WUHU216HW,2013-01-29 05:01:00,
2013-01-29 00:03:00,50.0,43.1,29.39,SW,225,4.9,4.9,77,0.00,,,0.00,WUHU216HW,2013-01-29 05:03:00,
2013-01-29 00:08:00,50.0,43.1,29.39,SW,225,4.9,4.9,77,0.00,,,0.00,WUHU216HW,2013-01-29 05:08:00,
2013-01-29 00:30:00,50.2,43.6,29.38,SW,225,9.8,9.8,78,0.00,,,0.00,WUHU216HW,2013-01-29 05:30:00,
2013-01-29 00:35:00,50.2,43.6,29.38,SW,225,9.8,9.8,78,0.00,,,0.00,WUHU216HW,2013-01-29 05:35:00,
2013-01-29 01:00:00,50.8,44.1,29.39,SW,225,6.3,6.3,78,0.00,,,0.00,WUHU216HW,2013-01-29 06:00:00,
2013-01-29 01:05:00,50.8,44.1,29.39,SW,225,6.3,6.3,78,0.00,,,0.00,WUHU216HW,2013-01-29 06:05:00,
2013-01-29 01:30:00,50.8,44.5,29.38,SW,225,7.8,7.8,79,0.00,,,0.00,WUHU216HW,2013-01-29 06:30:00,
2013-01-29 01:35:00,50.8,44.5,29.38,SW,225,7.8,7.8,79,0.00,,,0.00,WUHU216HW,2013-01-29 06:35:00,
2013-01-29 02:00:00,51.1,44.8,29.39,SSW,203,4.0,4.0,79,0.00,,,0.00,WUHU216HW,2013-01-29 07:00:00,
2013-01-29 02:05:00,51.1,44.8,29.39,SSW,203,4.0,4.0,79,0.00,,,0.00,WUHU216HW,2013-01-29 07:05:00,
2013-01-29 02:30:00,50.9,45.0,29.40,SW,225,2.5,2.5,80,0.00,,,0.00,WUHU216HW,2013-01-29 07:30:00,
2013-01-29 02:35:00,50.9,45.0,29.40,SW,225,2.5,2.5,80,0.00,,,0.00,WUHU216HW,2013-01-29 07:35:00,
2013-01-29 03:00:00,50.8,45.1,29.39,WSW,248,5.4,5.4,81,0.00,,,0.00,WUHU216HW,2013-01-29 08:00:00,
2013-01-29 03:05:00,50.8,45.1,29.39,WSW,248,5.4,5.4,81,0.00,,,0.00,WUHU216HW,2013-01-29 08:05:00,
2013-01-29 03:30:00,50.9,45.3,29.40,SSW,203,8.5,8.5,81,0.00,,,0.00,WUHU216HW,2013-01-29 08:30:00,
2013-01-29 03:35:00,50.9,45.3,29.40,SSW,203,8.5,8.5,81,0.00,,,0.00,WUHU216HW,2013-01-29 08:35:00,
2013-01-29 04:00:00,51.1,45.5,29.40,South,180,5.4,5.4,81,0.00,,,0.00,WUHU216HW,2013-01-29 09:00:00,
2013-01-29 04:05:00,51.1,45.5,29.40,South,180,5.4,5.4,81,0.00,,,0.00,WUHU216HW,2013-01-29 09:05:00,
2013-01-29 04:30:00,51.5,46.2,29.39,West,270,8.5,8.5,82,0.00,,,0.00,WUHU216HW,2013-01-29 09:30:00,
2013-01-29 04:35:00,51.5,46.2,29.39,West,270,8.5,8.5,82,0.00,,,0.00,WUHU216HW,2013-01-29 09:35:00,
2013-01-29 05:00:00,51.3,46.0,29.40,WSW,248,7.6,7.6,82,0.00,,,0.00,WUHU216HW,2013-01-29 10:00:00,
2013-01-29 05:05:00,51.3,46.0,29.40,WSW,248,7.6,7.6,82,0.00,,,0.00,WUHU216HW,2013-01-29 10:05:00,
2013-01-29 05:30:00,51.3,46.3,29.40,West,270,8.9,8.9,83,0.00,,,0.00,WUHU216HW,2013-01-29 10:30:00,
2013-01-29 05:35:00,51.3,46.3,29.40,West,270,8.9,8.9,83,0.00,,,0.00,WUHU216HW,2013-01-29 10:35:00,
2013-01-29 06:00:00,50.9,46.5,29.41,WNW,293,4.0,4.0,85,0.00,,,0.00,WUHU216HW,2013-01-29 11:00:00,
2013-01-29 06:05:00,50.9,46.5,29.41,WNW,293,4.0,4.0,85,0.00,,,0.00,WUHU216HW,2013-01-29 11:05:00,
2013-01-29 06:30:00,50.8,46.1,29.41,SW,225,1.1,1.1,84,0.01,,,0.00,WUHU216HW,2013-01-29 11:30:00,
2013-01-29 06:35:00,50.8,46.1,29.41,SW,225,1.1,1.1,84,0.01,,,0.00,WUHU216HW,2013-01-29 11:35:00,
2013-01-29 07:00:00,49.3,44.7,29.41,SSE,158,3.4,3.4,84,0.01,,,0.02,WUHU216HW,2013-01-29 12:00:00,
2013-01-29 07:05:00,49.3,44.7,29.41,SSE,158,3.4,3.4,84,0.01,,,0.02,WUHU216HW,2013-01-29 12:05:00,
2013-01-29 07:30:00,48.1,43.7,29.43,WSW,248,5.1,5.1,85,0.00,,,0.02,WUHU216HW,2013-01-29 12:30:00,
2013-01-29 07:35:00,48.1,43.7,29.43,WSW,248,5.1,5.1,85,0.00,,,0.02,WUHU216HW,2013-01-29 12:35:00,
2013-01-29 08:00:00,49.3,44.9,29.42,WSW,248,4.0,4.0,85,0.00,,,0.02,WUHU216HW,2013-01-29 13:00:00,
2013-01-29 08:05:00,49.3,44.9,29.42,WSW,248,4.0,4.0,85,0.00,,,0.02,WUHU216HW,2013-01-29 13:05:00,
2013-01-29 08:30:00,51.5,47.3,29.44,SW,225,7.4,7.4,86,0.00,,,0.02,WUHU216HW,2013-01-29 13:30:00,
2013-01-29 08:35:00,51.5,47.3,29.44,SW,225,7.4,7.4,86,0.00,,,0.02,WUHU216HW,2013-01-29 13:35:00,
2013-01-29 09:00:00,52.9,48.3,29.44,SSW,203,4.9,4.9,84,0.00,,,0.02,WUHU216HW,2013-01-29 14:00:00,
2013-01-29 09:05:00,52.9,48.3,29.44,SSW,203,4.9,4.9,84,0.00,,,0.02,WUHU216HW,2013-01-29 14:05:00,
2013-01-29 09:30:00,54.4,49.0,29.44,West,270,8.5,8.5,82,0.00,,,0.02,WUHU216HW,2013-01-29 14:30:00,
2013-01-29 09:35:00,54.4,49.0,29.44,West,270,8.5,8.5,82,0.00,,,0.02,WUHU216HW,2013-01-29 14:35:00,
2013-01-29 10:00:00,55.4,49.7,29.44,South,180,3.8,3.8,81,0.00,,,0.02,WUHU216HW,2013-01-29 15:00:00,
2013-01-29 10:05:00,55.4,49.7,29.44,South,180,3.8,3.8,81,0.00,,,0.02,WUHU216HW,2013-01-29 15:05:00,
2013-01-29 10:30:00,57.2,50.8,29.44,SW,225,4.0,4.0,79,0.00,,,0.02,WUHU216HW,2013-01-29 15:30:00,
2013-01-29 10:35:00,57.2,50.8,29.44,SW,225,4.0,4.0,79,0.00,,,0.02,WUHU216HW,2013-01-29 15:35:00,
2013-01-29 11:00:00,58.9,51.3,29.43,WSW,248,5.4,5.4,76,0.00,,,0.02,WUHU216HW,2013-01-29 16:00:00,
2013-01-29 11:05:00,58.9,51.3,29.43,WSW,248,5.4,5.4,76,0.00,,,0.02,WUHU216HW,2013-01-29 16:05:00,
2013-01-29 11:30:00,60.5,51.8,29.42,WSW,248,5.1,5.1,73,0.00,,,0.02,WUHU216HW,2013-01-29 16:30:00,
2013-01-29 11:35:00,60.5,51.8,29.42,WSW,248,5.1,5.1,73,0.00,,,0.02,WUHU216HW,2013-01-29 16:35:00,
2013-01-29 12:00:00,62.8,54.0,29.40,SE,135,1.1,1.1,73,0.00,,,0.02,WUHU216HW,2013-01-29 17:00:00,
2013-01-29 12:05:00,62.8,54.0,29.40,SE,135,1.1,1.1,73,0.00,,,0.02,WUHU216HW,2013-01-29 17:05:00,
2013-01-29 12:30:00,64.4,54.5,29.38,SSW,203,1.8,1.8,70,0.00,,,0.02,WUHU216HW,2013-01-29 17:30:00,
2013-01-29 12:35:00,64.4,54.5,29.38,SSW,203,1.8,1.8,70,0.00,,,0.02,WUHU216HW,2013-01-29 17:35:00,
2013-01-29 12:59:00,65.7,55.3,29.36,WSW,248,2.7,2.7,69,0.00,,,0.02,WUHU216HW,2013-01-29 17:59:00,
2013-01-29 13:00:00,65.7,55.3,29.36,WSW,248,2.7,2.7,69,0.00,,,0.02,WUHU216HW,2013-01-29 18:00:00,
2013-01-29 13:05:00,65.7,55.3,29.36,WSW,248,2.7,2.7,69,0.00,,,0.02,WUHU216HW,2013-01-29 18:05:00,
2013-01-29 13:30:00,67.3,55.5,29.35,SSE,158,3.4,3.4,66,0.00,,,0.02,WUHU216HW,2013-01-29 18:30:00,
2013-01-29 13:35:00,67.3,55.5,29.35,SSE,158,3.4,3.4,66,0.00,,,0.02,WUHU216HW,2013-01-29 18:35:00,
2013-01-29 14:00:00,68.6,55.0,29.35,WSW,248,5.8,5.8,62,0.00,,,0.02,WUHU216HW,2013-01-29 19:00:00,
2013-01-29 14:05:00,68.6,55.0,29.35,WSW,248,5.8,5.8,62,0.00,,,0.02,WUHU216HW,2013-01-29 19:05:00,
2013-01-29 14:30:00,69.8,55.4,29.34,SSE,158,7.6,7.6,60,0.00,,,0.02,WUHU216HW,2013-01-29 19:30:00,
2013-01-29 14:35:00,69.8,55.4,29.34,SSE,158,7.6,7.6,60,0.00,,,0.02,WUHU216HW,2013-01-29 19:35:00,
2013-01-29 15:00:00,70.9,55.5,29.34,South,180,13.2,13.2,58,0.00,,,0.02,WUHU216HW,2013-01-29 20:00:00,
2013-01-29 15:05:00,70.9,55.5,29.34,South,180,13.2,13.2,58,0.00,,,0.02,WUHU216HW,2013-01-29 20:05:00,
2013-01-29 15:30:00,71.3,55.3,29.33,South,180,5.4,5.4,57,0.00,,,0.02,WUHU216HW,2013-01-29 20:30:00,
2013-01-29 15:35:00,71.3,55.3,29.33,South,180,5.4,5.4,57,0.00,,,0.02,WUHU216HW,2013-01-29 20:35:00,
2013-01-29 16:00:00,70.7,55.3,29.33,SSE,158,3.6,3.6,58,0.00,,,0.02,WUHU216HW,2013-01-29 21:00:00,
2013-01-29 16:05:00,70.7,55.3,29.33,SSE,158,3.6,3.6,58,0.00,,,0.02,WUHU216HW,2013-01-29 21:05:00,
2013-01-29 16:30:00,70.6,55.1,29.33,South,180,5.4,5.4,58,0.00,,,0.02,WUHU216HW,2013-01-29 21:30:00,
2013-01-29 16:35:00,70.6,55.1,29.33,South,180,5.4,5.4,58,0.00,,,0.02,WUHU216HW,2013-01-29 21:35:00,
2013-01-29 17:00:00,68.8,54.4,29.33,SSE,158,3.6,3.6,60,0.00,,,0.02,WUHU216HW,2013-01-29 22:00:00,
2013-01-29 17:05:00,68.8,54.4,29.33,SSE,158,3.6,3.6,60,0.00,,,0.02,WUHU216HW,2013-01-29 22:05:00,
2013-01-29 17:30:00,67.1,53.6,29.33,SSE,158,4.7,4.7,62,0.00,,,0.02,WUHU216HW,2013-01-29 22:30:00,
2013-01-29 17:35:00,67.1,53.6,29.33,SSE,158,4.7,4.7,62,0.00,,,0.02,WUHU216HW,2013-01-29 22:35:00,
2013-01-29 18:00:00,65.9,53.4,29.32,SSE,158,2.9,2.9,64,0.00,,,0.02,WUHU216HW,2013-01-29 23:00:00,
2013-01-29 18:05:00,65.9,53.4,29.32,SSE,158,2.9,2.9,64,0.00,,,0.02,WUHU216HW,2013-01-29 23:05:00,
2013-01-29 18:30:00,64.1,52.9,29.32,SSE,158,3.8,3.8,67,0.00,,,0.02,WUHU216HW,2013-01-29 23:30:00,
2013-01-29 18:35:00,64.1,52.9,29.32,SSE,158,3.8,3.8,67,0.00,,,0.02,WUHU216HW,2013-01-29 23:35:00,
2013-01-29 19:00:00,62.3,51.6,29.32,SSE,158,3.1,3.1,68,0.00,,,0.02,WUHU216HW,2013-01-30 00:00:00,
2013-01-29 19:05:00,62.3,51.6,29.32,SSE,158,3.1,3.1,68,0.00,,,0.02,WUHU216HW,2013-01-30 00:05:00,
2013-01-29 19:30:00,61.2,51.5,29.32,WSW,248,0.4,0.4,70,0.00,,,0.02,WUHU216HW,2013-01-30 00:30:00,
2013-01-29 19:35:00,61.2,51.5,29.32,WSW,248,0.4,0.4,70,0.00,,,0.02,WUHU216HW,2013-01-30 00:35:00,
2013-01-29 20:00:00,60.3,51.3,29.32,NW,315,0.4,0.4,72,0.00,,,0.02,WUHU216HW,2013-01-30 01:00:00,
2013-01-29 20:05:00,60.3,51.3,29.32,NW,315,0.4,0.4,72,0.00,,,0.02,WUHU216HW,2013-01-30 01:05:00,
2013-01-29 20:30:00,59.8,50.8,29.32,ESE,113,2.7,2.7,72,0.00,,,0.02,WUHU216HW,2013-01-30 01:30:00,
2013-01-29 20:35:00,59.8,50.8,29.32,ESE,113,2.7,2.7,72,0.00,,,0.02,WUHU216HW,2013-01-30 01:35:00,
2013-01-29 21:00:00,56.7,48.8,29.31,SSE,158,1.8,1.8,75,0.00,,,0.02,WUHU216HW,2013-01-30 02:00:00,
2013-01-29 21:05:00,56.7,48.8,29.31,SSE,158,1.8,1.8,75,0.00,,,0.02,WUHU216HW,2013-01-30 02:05:00,
2013-01-29 21:30:00,55.4,48.3,29.31,SE,135,4.7,4.7,77,0.00,,,0.02,WUHU216HW,2013-01-30 02:30:00,
2013-01-29 21:35:00,55.4,48.3,29.31,SE,135,4.7,4.7,77,0.00,,,0.02,WUHU216HW,2013-01-30 02:35:00,
2013-01-29 22:30:00,59.8,51.1,29.30,SSE,158,6.9,6.9,73,0.00,,,0.02,WUHU216HW,2013-01-30 03:30:00,
2013-01-29 22:35:00,59.8,51.1,29.30,SSE,158,6.9,6.9,73,0.00,,,0.02,WUHU216HW,2013-01-30 03:35:00,
2013-01-29 23:00:00,58.7,50.4,29.28,SSE,158,7.6,7.6,74,0.00,,,0.02,WUHU216HW,2013-01-30 04:00:00,
2013-01-29 23:05:00,58.7,50.4,29.28,SSE,158,7.6,7.6,74,0.00,,,0.02,WUHU216HW,2013-01-30 04:05:00,
2013-01-29 23:30:00,58.5,50.2,29.28,SSE,158,6.3,6.3,74,0.00,,,0.02,WUHU216HW,2013-01-30 04:30:00,
2013-01-29 23:35:00,58.5,50.2,29.28,SSE,158,6.3,6.3,74,0.00,,,0.02,WUHU216HW,2013-01-30 04:35:00,